Location: ????????
(54.6123°N, 39.2099°E)
Time: 11:39:20
(UTC+00:00)

CENTAUR R/B - Pass Details

Date: 19 May 2025
Orbit: 645 x 1537 km, 63.4° (Epoch: 14 June)

Event Time Altitude Azimuth Distance (km) Brightness Sun altitude
Rises 23:16:05 0° 310° (NW) 4,244 6.0 -11.4°
Reaches altitude 10° 23:19:27 10° 297° (WNW) 3,400 5.3 -11.1°
Maximum altitude 23:25:35 23° 251° (WSW) 2,715 4.4 -10.7°
Enters shadow 23:31:26 12° 208° (SSW) 3,506 4.7 -10.3°
